Location: Kansas State University
(39.1938°N, 96.5858°W)
Time: 13:19:41
(UTC-05:00)

Daily predictions for brighter satellites

Satellite Brightness Start Highest point End
(mag) Time Altitude Azimuth Time Altitude Azimuth Time Altitude Azimuth
Atlas Centaur 2 3.8 20:59:34 10° SSW 21:05:38 29° SSE 21:12:27 10° ESE
Cosmos 2219 Rocket 4.1 21:03:26 10° SW 21:08:35 36° WNW 21:13:45 10° N
CZ-2D R/B 3.6 21:06:28 10° S 21:10:21 74° WSW 21:14:16 10° NNW
H-2A R/B 2.8 21:06:42 10° SE 21:10:36 37° ENE 21:14:35 10° N
Cosmos 158 Rocket 4.3 21:06:04 10° SSW 21:11:07 74° WNW 21:16:20 10° NNE
Cosmos 2369 Rocket 4.4 21:10:04 10° NE 21:11:10 10° NE 21:12:15 10° ENE
DEBRIS 3.9 21:05:10 10° WNW 21:12:24 46° NNE 21:15:05 10° E
SeaSat 1 3.8 21:08:28 10° ESE 21:12:27 25° NE 21:16:26 10° N
Cosmos 1666 3.8 21:13:02 10° NNE 21:16:29 29° ENE 21:19:55 10° SE
SL-16 R/B 2.2 21:11:40 10° SSW 21:17:18 81° ESE 21:22:59 10° NNE
Cosmos 1500 4.1 21:14:06 10° NNW 21:17:54 53° W 21:21:41 10° S
Cosmos 1939 Rocket 3.8 21:18:11 10° SE 21:21:57 34° ENE 21:25:44 10° N
Milstar 3 Cent rocket 4.0 21:15:52 10° WSW 21:23:00 27° SSW 21:27:37 10° SE
COSMOS 2455 3.8 21:20:22 10° SSE 21:25:09 25° ESE 21:29:57 10° NE
Cosmos 1743 3.1 21:26:41 10° NNW 21:30:31 67° W 21:34:17 10° S
Cosmos 2228 3.4 21:26:20 10° N 21:30:38 48° E 21:34:54 10° SSE
Lacrosse 5 rocket 3.2 21:27:13 10° WSW 21:30:43 33° NW 21:34:25 10° NNE
Cosmos 1025 Rocket 4.1 21:27:40 10° SSW 21:31:55 50° W 21:36:12 10° N
APEX 4.0 21:28:32 10° NNW 21:32:33 53° ENE 21:37:25 11° SE
ATLAS 3B R/B 4.1 21:30:05 10° SSE 21:35:16 20° ESE 21:40:25 10° ENE
Cosmos 2251 Rocket 4.5 21:32:26 10° SW 21:37:36 53° WNW 21:42:51 10° N
Meteor 1-23 Rocket 4.3 21:32:16 10° S 21:37:54 89° E 21:43:39 10° N
Cosmos 1892 Rocket 4.2 21:35:59 10° SSW 21:40:21 60° W 21:44:48 10° N
Centaur D AC-28 3.6 21:38:01 10° WSW 21:40:36 15° SSW 21:42:47 10° SSE
ERS-1 Rocket 3.1 21:38:14 10° S 21:43:14 81° WSW 21:48:17 10° NNW
USA 186 3.9 21:42:18 10° SSW 21:44:38 22° W 21:46:52 10° NW
Cosmos 1603 3.8 21:40:52 10° S 21:46:17 53° ESE 21:51:44 10° NNE
Envisat 3.2 21:42:41 12° SSE 21:47:20 57° ENE 21:52:20 10° N
Nimbus 7 Rocket 4.4 21:42:02 10° NNE 21:47:59 69° ESE 21:53:51 10° S
SJ-11-01 4.4 21:43:26 10° S 21:48:05 79° WSW 21:52:47 10° NNW
Abrixas rocket 2.2 21:45:40 10° WNW 21:49:06 89° NNE 21:51:25 19° ESE
USA 234 3.9 21:45:49 11° ESE 21:51:57 49° NE 21:58:14 10° NW
Meteor 2-9 Rocket 4.3 21:46:25 10° N 21:52:09 89° WSW 21:57:58 10° S
Okean 2 4.0 21:49:40 10° SSW 21:53:47 59° W 21:57:56 10° N
Meteor 2-4 Rocket 4.4 21:51:42 10° SSW 21:57:29 62° WNW 22:03:23 10° N
YAOGAN 6 3.6 22:02:20 22° ESE 22:03:59 32° ENE 22:07:21 10° N
UNK 4.3 21:59:47 10° NNE 22:05:10 61° ESE 22:10:48 10° S
ISS -3.0 22:02:47 10° SSW 22:05:51 40° SE 22:08:57 10° ENE
PSLV R/B 3.3 22:02:49 10° WSW 22:06:20 70° SSE 22:09:23 13° ENE
BREEZE-M DEB (TANK) 2.4 22:01:38 10° WSW 22:06:37 82° NW 22:08:51 10° NE
Tsikada Rocket 4.0 22:02:23 10° S 22:08:47 78° E 22:15:11 10° N
Timation 1 Rocket 4.3 22:02:50 10° NNW 22:08:53 90° E 22:13:19 19° SSE
CZ-2C R/B 3.4 22:07:42 10° SW 22:09:00 14° W 22:10:19 10° WNW
Cosmos 1943 3.8 22:07:20 17° SSE 22:10:55 34° ESE 22:15:59 10° NE
Cosmos 1238 4.4 22:11:51 29° SSE 22:13:11 52° E 22:16:07 10° NNE
Cosmos 1461 2.9 22:12:16 10° NNW 22:16:33 80° WSW 22:18:39 28° SSE
SPOT 5 2.7 22:15:34 19° S 22:18:44 79° WSW 22:23:06 10° NNW
Cosmos 1943 Rocket 4.3 22:17:22 10° NNE 22:20:19 14° NE 22:23:17 10° E
MetOp-A 4.1 22:16:40 21° SSE 22:20:22 79° ENE 22:25:45 10° N
CZ-4 SHROUD 3.8 22:19:33 23° S 22:21:17 52° W 22:24:24 10° NNW
Cosmos 1602 Rocket 4.2 22:19:00 10° SSW 22:23:24 57° W 22:27:49 10° N
Cosmos 1992 Rocket 4.4 22:20:43 10° N 22:25:47 49° ENE 22:28:12 28° SE
Cosmos 1825 Rocket 3.8 22:26:46 31° SSE 22:28:30 49° E 22:32:47 10° NNE
SL-08 RB Rocket 4.3 22:27:20 29° ESE 22:29:02 41° ENE 22:33:17 10° N
H-2A R/B 3.3 22:28:49 21° E 22:30:34 26° ENE 22:34:40 10° NNE
Cosmos 1812 Rocket 3.8 22:30:48 10° NNW 22:35:10 69° W 22:37:38 25° S
SPOT 1/Viking Rocket 3.5 22:36:21 30° SSE 22:39:00 83° ENE 22:44:11 10° NNW
Terra 3.0 22:39:33 25° E 22:40:50 29° ENE 22:44:53 10° N
Geosat 4.1 22:37:13 10° NE 22:42:09 54° ESE 22:44:24 30° S
Cosmos 1190 Rocket 4.1 22:40:31 30° SSE 22:42:57 56° ESE 22:48:09 10° NNE
H-2A R/B 4.5 22:43:52 10° SW 22:46:45 18° W 22:49:39 10° NW
USA 245 4.3 22:43:14 27° S 22:46:46 83° WSW 22:52:09 10° NNW
CZ-4C R/B 3.6 22:48:45 46° SE 22:49:42 59° ENE 22:53:46 10° N
SeaSat 1 3.2 22:47:09 24° S 22:49:43 44° WSW 22:54:26 10° NW
Cosmos 1634 Rocket 3.9 22:44:27 10° N 22:50:39 78° E 22:53:37 33° SSE
ARGOS 3.1 22:52:05 35° SSE 22:54:28 90° WSW 22:59:56 10° NNW
Atlas Centaur 2 3.3 22:47:14 10° WSW 22:54:39 44° S 22:58:15 30° SE
Cosmos 2369 Rocket 2.3 22:50:41 10° NNW 22:56:20 66° ENE 22:58:17 40° SE
CZ-4B R/B 4.2 22:52:56 10° N 22:57:52 53° WNW 23:02:50 10° SSW
Cosmos 676 Rocket 4.3 22:58:33 42° SE 22:59:22 46° ESE 23:04:28 10° NNE
Cosmos 1900 4.5 23:02:03 48° SSE 23:02:51 53° ESE 23:07:52 10° NE
NOAA 11 4.2 23:04:33 39° S 23:06:39 77° WSW 23:12:06 10° NNW
Cosmos 489 Rocket 4.4 23:04:44 31° S 23:07:59 74° ESE 23:14:21 10° NNE
Cosmos 1953 3.7 23:07:06 10° NNE 23:10:05 27° ENE 23:10:05 27° ENE
COSMOS 2455 3.7 23:04:56 10° SW 23:10:43 49° WNW 23:16:34 10° NNE
Cosmos 1953 Rocket 3.7 23:12:41 46° SSW 23:13:52 69° W 23:18:18 10° N
Cosmos 2279 Rocket 4.0 23:08:56 10° N 23:15:11 71° E 23:17:07 46° SSE
Cosmos 2263 4.1 23:14:34 10° NNW 23:20:12 75° ENE 23:21:29 53° SE
IGS 5A 3.5 23:20:24 64° ENE 23:20:24 64° ENE 23:24:30 10° N
Meteor 1-22 Rocket 4.3 23:14:57 10° NNW 23:20:31 76° W 23:22:21 45° S
COSMOS 2406 4.1 23:21:08 32° E 23:21:08 32° E 23:25:33 10° NE
ATLAS 3B R/B 3.0 23:17:29 10° SW 23:25:14 84° WNW 23:32:49 10° NNE
Cosmos 1932 4.5 23:27:10 52° SE 23:27:54 55° ESE 23:33:57 10° NE
Cosmos 407 Rocket 3.8 23:29:34 34° SW 23:31:47 66° WNW 23:37:01 10° NNE
Cosmos 1346 Rocket 3.8 23:31:31 35° WSW 23:32:11 39° WNW 23:35:54 10° N
Cosmos 2180 Rocket 4.4 23:26:52 10° N 23:33:11 82° E 23:34:48 53° SSE
USA 234 3.6 23:33:09 41° S 23:34:54 50° SW 23:41:15 10° NW
Cosmos-2242 3.1 23:31:04 10° N 23:35:14 70° NE 23:35:14 70° NE
Lacrosse 4 Rocket 1.9 23:35:28 51° W 23:35:57 55° WNW 23:39:58 10° NNE
Kosmos-1675 4.0 23:36:18 50° WSW 23:37:01 65° NW 23:45:42 10° NNE
ISS -1.0 23:39:38 10° W 23:42:24 25° NNW 23:45:09 10° NNE
Cosmos 1842 3.9 23:48:55 52° NW 23:48:55 52° NW 23:52:19 10° N
CZ-4B R/B 4.4 23:50:52 10° NE 23:50:52 10° NE 23:51:07 10° NE
Cosmos 1954 Rocket 4.0 23:49:59 63° SW 23:50:48 78° WNW 23:56:08 10° NNE
CARTOSAT-1 4.2 23:51:37 46° W 23:51:37 46° W 23:55:42 10° NNW
Cosmos 1758 3.9 23:51:30 10° N 23:54:51 58° NNW 23:54:51 58° NNW
